CCA2789 ZBAA-ZSSS

Flight info

Callsign CCA2789
Flight time N/A
Altitude 33100
Route ELKUR W40 YQG W142 DALIM A593 DPX A470 DALNU W166 ZJ W167 SASAN R343 PK
Aircraft B38M/M-SDE1FGHILORVWXY/HB1

Departure

Time 2026-05-07 12:46
Airport Beijing Capital International Airport (ZBAA)

Arrival

Time N/A
Airport Shanghai Hongqiao International Airport (ZSSS)
Time Latitude Longitude Altitude Speed Heading
2026-05-07 12:15 40.05574 116.61095 126 ft 0 kts 236°
2026-05-07 12:31 40.05593 116.61133 121 ft 6 kts 238°
2026-05-07 12:31 40.05609 116.61170 122 ft 3 kts 246°
2026-05-07 12:31 40.05614 116.61191 123 ft 2 kts 264°
2026-05-07 12:32 40.05614 116.61206 123 ft 2 kts 290°
2026-05-07 12:32 40.05609 116.61218 125 ft 2 kts 311°
2026-05-07 12:32 40.05601 116.61228 123 ft 2 kts 319°
2026-05-07 12:32 40.05597 116.61232 125 ft 0 kts 320°
2026-05-07 12:35 40.05600 116.61229 124 ft 2 kts 320°
2026-05-07 12:35 40.05622 116.61213 125 ft 5 kts 334°
2026-05-07 12:36 40.05671 116.61179 124 ft 11 kts 339°
2026-05-07 12:36 40.05761 116.61160 125 ft 16 kts 353°
2026-05-07 12:36 40.05883 116.61141 124 ft 19 kts 353°
2026-05-07 12:36 40.06021 116.61120 123 ft 21 kts 353°
2026-05-07 12:37 40.06173 116.61095 124 ft 23 kts 353°
2026-05-07 12:37 40.06302 116.61075 126 ft 10 kts 353°
2026-05-07 12:37 40.06338 116.61012 124 ft 11 kts 265°
2026-05-07 12:37 40.06327 116.60890 126 ft 17 kts 263°
2026-05-07 12:38 40.06310 116.60715 125 ft 21 kts 262°
2026-05-07 12:38 40.06292 116.60521 122 ft 19 kts 263°
2026-05-07 12:38 40.06276 116.60339 124 ft 21 kts 263°
2026-05-07 12:38 40.06259 116.60174 124 ft 16 kts 254°
2026-05-07 12:39 40.06181 116.60151 125 ft 13 kts 173°
2026-05-07 12:39 40.06080 116.60167 125 ft 16 kts 173°
2026-05-07 12:39 40.05963 116.60185 123 ft 18 kts 173°
2026-05-07 12:39 40.05829 116.60206 124 ft 20 kts 173°
2026-05-07 12:40 40.05680 116.60230 125 ft 23 kts 173°
2026-05-07 12:40 40.05564 116.60242 124 ft 11 kts 197°
2026-05-07 12:40 40.05541 116.60182 124 ft 0 kts 268°
2026-05-07 12:41 40.05541 116.60177 124 ft 2 kts 268°
2026-05-07 12:41 40.05540 116.60149 126 ft 5 kts 268°
2026-05-07 12:41 40.05538 116.60092 126 ft 8 kts 268°
2026-05-07 12:41 40.05539 116.60079 126 ft 0 kts 278°
2026-05-07 12:45 40.05540 116.60076 126 ft 1 kts 285°
2026-05-07 12:45 40.05551 116.60058 125 ft 5 kts 315°
2026-05-07 12:45 40.05610 116.60003 124 ft 14 kts 345°
2026-05-07 12:45 40.05723 116.59986 124 ft 21 kts 352°
2026-05-07 12:46 40.06037 116.59938 124 ft 79 kts 353°
2026-05-07 12:46 40.06795 116.59820 123 ft 138 kts 353°
2026-05-07 12:46 40.07850 116.59648 431 ft 159 kts 353°
2026-05-07 12:46 40.09007 116.59512 936 ft 171 kts 352°
2026-05-07 12:47 40.10181 116.59314 1650 ft 170 kts 352°
2026-05-07 12:47 40.11402 116.59111 2206 ft 185 kts 351°
2026-05-07 12:47 40.12772 116.58905 2590 ft 213 kts 352°
2026-05-07 12:47 40.14321 116.58657 3131 ft 234 kts 352°
2026-05-07 12:48 40.15994 116.58384 3766 ft 251 kts 352°
2026-05-07 12:48 40.17751 116.58107 4658 ft 253 kts 355°
2026-05-07 12:48 40.19461 116.58520 5560 ft 261 kts 25°
2026-05-07 12:48 40.20914 116.59994 6248 ft 270 kts 46°
2026-05-07 12:49 40.21900 116.62099 6446 ft 275 kts 65°
2026-05-07 12:49 40.22631 116.64417 6589 ft 276 kts 64°
2026-05-07 12:49 40.23390 116.66746 7079 ft 279 kts 64°
2026-05-07 12:49 40.24143 116.69063 8087 ft 277 kts 64°
2026-05-07 12:50 40.24905 116.71405 8909 ft 282 kts 63°
2026-05-07 12:50 40.25679 116.73784 9778 ft 286 kts 63°
2026-05-07 12:50 40.26462 116.76192 10573 ft 289 kts 63°
2026-05-07 12:50 40.26975 116.78773 11387 ft 298 kts 80°
2026-05-07 12:51 40.27197 116.81494 12192 ft 304 kts 78°
2026-05-07 12:51 40.27164 116.84291 13009 ft 316 kts 102°
2026-05-07 12:51 40.26139 116.86875 13744 ft 332 kts 130°
2026-05-07 12:51 40.24233 116.88709 14143 ft 353 kts 159°
2026-05-07 12:52 40.21791 116.89281 14567 ft 363 kts 184°
2026-05-07 12:52 40.19212 116.89322 15023 ft 378 kts 178°
2026-05-07 12:52 40.16555 116.89565 15669 ft 386 kts 178°
2026-05-07 12:52 40.13865 116.89823 16454 ft 390 kts 178°
2026-05-07 12:53 40.11138 116.90096 17168 ft 396 kts 178°
2026-05-07 12:53 40.08372 116.90375 17885 ft 401 kts 178°
2026-05-07 12:53 40.05578 116.90659 18550 ft 406 kts 178°
2026-05-07 12:53 40.02736 116.90947 19176 ft 410 kts 178°
2026-05-07 12:54 39.99866 116.91239 19649 ft 417 kts 178°
2026-05-07 12:54 39.96975 116.91535 19762 ft 416 kts 178°
2026-05-07 12:54 39.94127 116.91821 19865 ft 417 kts 178°
2026-05-07 12:54 39.91238 116.92110 20572 ft 415 kts 178°
2026-05-07 12:55 39.88346 116.92387 21206 ft 419 kts 178°
2026-05-07 12:55 39.85422 116.92682 21772 ft 424 kts 178°
2026-05-07 12:55 39.82469 116.92979 22373 ft 427 kts 178°
2026-05-07 12:55 39.79490 116.93278 22952 ft 431 kts 178°
2026-05-07 12:56 39.76481 116.93580 23521 ft 435 kts 178°
2026-05-07 12:56 39.73450 116.93885 24021 ft 438 kts 179°
2026-05-07 12:56 39.70400 116.94191 24512 ft 441 kts 179°
2026-05-07 12:56 39.67330 116.94497 24991 ft 444 kts 179°
2026-05-07 12:57 39.64240 116.94806 25462 ft 447 kts 179°
2026-05-07 12:57 39.61125 116.95117 25930 ft 449 kts 180°
2026-05-07 12:57 39.57993 116.95430 26386 ft 452 kts 180°
2026-05-07 12:57 39.54843 116.95748 26846 ft 454 kts 179°
2026-05-07 12:58 39.51737 116.96239 27575 ft 448 kts 181°
2026-05-07 12:58 39.48658 116.96344 27982 ft 447 kts 185°
2026-05-07 12:58 39.45506 116.96628 28606 ft 448 kts 181°
2026-05-07 12:58 39.42444 116.96938 29161 ft 447 kts 182°
2026-05-07 12:59 39.39345 116.97238 29720 ft 446 kts 182°
2026-05-07 12:59 39.36253 116.97535 30258 ft 444 kts 182°
2026-05-07 12:59 39.33171 116.97837 30671 ft 443 kts 183°
2026-05-07 12:59 39.30107 116.98250 31115 ft 441 kts 185°
2026-05-07 13:00 39.27038 116.98488 31501 ft 440 kts 185°
2026-05-07 13:00 39.23976 116.98752 31898 ft 441 kts 185°
2026-05-07 13:00 39.20918 116.99034 32292 ft 440 kts 185°
2026-05-07 13:00 39.17865 116.99324 32692 ft 440 kts 185°
2026-05-07 13:01 39.14790 116.99620 32795 ft 448 kts 185°
2026-05-07 13:01 39.11641 116.99946 32735 ft 459 kts 185°
2026-05-07 13:01 39.05133 117.00616 32755 ft 478 kts 185°
2026-05-07 13:02 39.01810 117.00951 33064 ft 479 kts 185°
2026-05-07 13:02 38.98474 117.01274 33226 ft 483 kts 185°
2026-05-07 13:02 38.91723 117.01949 33169 ft 495 kts 185°
2026-05-07 13:03 38.84857 117.02620 33209 ft 494 kts 185°
2026-05-07 13:03 38.77957 117.03286 33213 ft 494 kts 185°
2026-05-07 13:04 38.71149 117.03944 33164 ft 494 kts 186°
2026-05-07 13:04 38.64332 117.04601 33228 ft 490 kts 187°
2026-05-07 13:05 38.57532 117.05253 33224 ft 489 kts 187°
2026-05-07 13:05 38.50729 117.05906 33224 ft 490 kts 187°
2026-05-07 13:06 38.43935 117.06556 33228 ft 490 kts 188°
2026-05-07 13:06 38.37137 117.07207 33232 ft 489 kts 188°
2026-05-07 13:07 38.30342 117.07855 33231 ft 489 kts 188°
2026-05-07 13:07 38.23553 117.08501 33230 ft 489 kts 189°
2026-05-07 13:08 38.16810 117.09142 33236 ft 489 kts 189°
2026-05-07 13:08 38.10029 117.09786 33246 ft 489 kts 189°
2026-05-07 13:09 38.03255 117.10433 33238 ft 485 kts 191°
2026-05-07 13:09 37.96540 117.11063 33243 ft 483 kts 191°
2026-05-07 13:10 37.89834 117.11694 33248 ft 483 kts 191°
2026-05-07 13:10 37.83121 117.12326 33249 ft 483 kts 191°
2026-05-07 13:11 37.76416 117.12957 33250 ft 483 kts 191°
2026-05-07 13:11 37.69709 117.13586 33252 ft 483 kts 191°
2026-05-07 13:12 37.63040 117.14213 33203 ft 483 kts 191°
2026-05-07 13:12 37.56382 117.14834 33251 ft 478 kts 191°
2026-05-07 13:13 37.49744 117.15452 33256 ft 478 kts 191°
2026-05-07 13:13 37.43113 117.16070 33257 ft 478 kts 191°
2026-05-07 13:14 37.36505 117.16686 33273 ft 474 kts 191°
2026-05-07 13:14 37.29939 117.17294 33254 ft 472 kts 191°
2026-05-07 13:15 37.23378 117.17902 33265 ft 472 kts 191°
2026-05-07 13:15 37.16848 117.18507 33243 ft 468 kts 190°
2026-05-07 13:16 37.10398 117.19102 33268 ft 467 kts 190°
2026-05-07 13:16 37.03920 117.19699 33268 ft 467 kts 190°
2026-05-07 13:17 36.97438 117.20295 33231 ft 467 kts 189°
2026-05-07 13:17 36.90974 117.20889 33267 ft 464 kts 189°
2026-05-07 13:18 36.84530 117.21479 33271 ft 463 kts 190°
2026-05-07 13:18 36.78243 117.21454 33272 ft 454 kts 194°
2026-05-07 13:19 36.71921 117.21408 33260 ft 453 kts 193°
2026-05-07 13:19 36.65621 117.21387 33279 ft 452 kts 193°
2026-05-07 13:20 36.60391 117.21372 33270 ft 453 kts 193°
2026-05-07 13:20 36.54079 117.21353 33226 ft 453 kts 193°
2026-05-07 13:21 36.47778 117.21335 33278 ft 453 kts 193°
2026-05-07 13:21 36.41429 117.21627 33283 ft 473 kts 180°
2026-05-07 13:22 36.34978 117.23880 33348 ft 485 kts 176°
2026-05-07 13:22 36.28521 117.26243 33230 ft 483 kts 175°
2026-05-07 13:23 36.22071 117.28635 33280 ft 484 kts 175°
2026-05-07 13:23 36.15613 117.31029 33275 ft 484 kts 175°
2026-05-07 13:24 36.09163 117.33415 33276 ft 484 kts 175°
2026-05-07 13:24 36.02748 117.35789 33278 ft 485 kts 174°
2026-05-07 13:25 35.96263 117.38210 33262 ft 487 kts 174°
2026-05-07 13:25 35.89773 117.40640 33275 ft 487 kts 174°
2026-05-07 13:26 35.83277 117.43068 33273 ft 487 kts 174°
2026-05-07 13:26 35.76798 117.45486 33263 ft 487 kts 173°
2026-05-07 13:27 35.70304 117.47905 33267 ft 487 kts 173°
2026-05-07 13:27 35.63830 117.50312 33268 ft 485 kts 173°
2026-05-07 13:28 35.57367 117.52711 33265 ft 485 kts 173°
2026-05-07 13:28 35.50935 117.55094 33273 ft 485 kts 173°
2026-05-07 13:29 35.44462 117.57490 33265 ft 485 kts 173°
2026-05-07 13:29 35.37996 117.59877 33264 ft 485 kts 174°
2026-05-07 13:30 35.31529 117.62262 33239 ft 485 kts 173°
2026-05-07 13:30 35.25106 117.64626 33274 ft 485 kts 173°
2026-05-07 13:31 35.18637 117.67004 33272 ft 484 kts 173°
2026-05-07 13:31 35.12187 117.69371 33267 ft 484 kts 173°
2026-05-07 13:32 35.05725 117.71739 33254 ft 484 kts 173°
2026-05-07 13:32 34.99267 117.74105 33256 ft 484 kts 173°
2026-05-07 13:33 34.92817 117.76467 33272 ft 484 kts 173°
2026-05-07 13:33 34.86384 117.78815 33267 ft 484 kts 173°
2026-05-07 13:34 34.76684 117.82327 33267 ft 486 kts 173°
2026-05-07 13:35 34.70197 117.84664 33263 ft 485 kts 173°
2026-05-07 13:35 34.63718 117.86995 33260 ft 485 kts 173°
2026-05-07 13:36 34.57277 117.89308 33229 ft 485 kts 173°
2026-05-07 13:36 34.50803 117.91628 33260 ft 485 kts 173°
2026-05-07 13:37 34.44327 117.93947 33253 ft 485 kts 173°
2026-05-07 13:37 34.37849 117.96262 33256 ft 485 kts 173°
2026-05-07 13:38 34.31374 117.98572 33219 ft 485 kts 173°
2026-05-07 13:38 34.24895 118.00916 33259 ft 487 kts 172°
2026-05-07 13:39 34.18408 118.03278 33257 ft 486 kts 172°
2026-05-07 13:39 34.11918 118.05635 33253 ft 486 kts 172°
2026-05-07 13:40 34.05443 118.07984 33223 ft 486 kts 172°
2026-05-07 13:40 33.98955 118.10341 33255 ft 487 kts 172°
2026-05-07 13:41 33.92462 118.12705 33253 ft 487 kts 172°
2026-05-07 13:41 33.85973 118.15063 33251 ft 487 kts 172°
2026-05-07 13:42 33.79680 118.18142 33224 ft 506 kts 153°
2026-05-07 13:42 33.73839 118.22969 33249 ft 510 kts 152°
2026-05-07 13:43 33.67992 118.27813 33252 ft 510 kts 152°
2026-05-07 13:43 33.62149 118.32662 33255 ft 510 kts 152°
2026-05-07 13:44 33.56308 118.37501 33255 ft 510 kts 152°
2026-05-07 13:44 33.50464 118.42336 33223 ft 510 kts 152°
2026-05-07 13:45 33.44655 118.47133 33256 ft 511 kts 152°
2026-05-07 13:45 33.38794 118.51965 33251 ft 511 kts 152°
2026-05-07 13:46 33.32933 118.56789 33246 ft 511 kts 152°
2026-05-07 13:46 33.27064 118.61612 33248 ft 511 kts 152°
2026-05-07 13:47 33.21238 118.66403 33233 ft 511 kts 152°
2026-05-07 13:47 33.15371 118.71281 33248 ft 513 kts 152°
2026-05-07 13:48 33.09505 118.76145 33246 ft 513 kts 152°
2026-05-07 13:48 33.03647 118.80995 33245 ft 513 kts 152°
2026-05-07 13:49 32.97775 118.85848 33245 ft 513 kts 152°
2026-05-07 13:49 32.91903 118.90693 33242 ft 513 kts 152°
2026-05-07 13:50 32.86073 118.95497 33236 ft 513 kts 152°
2026-05-07 13:50 32.80232 119.00356 33238 ft 510 kts 152°
2026-05-07 13:51 32.74408 119.05189 33236 ft 510 kts 152°
2026-05-07 13:51 32.68592 119.10008 33237 ft 510 kts 152°
2026-05-07 13:52 32.62772 119.14824 33210 ft 510 kts 152°
2026-05-07 13:52 32.56943 119.19638 33238 ft 511 kts 152°
2026-05-07 13:53 32.51102 119.24453 33231 ft 511 kts 152°
2026-05-07 13:53 32.45317 119.29216 33230 ft 508 kts 152°
2026-05-07 13:54 32.39509 119.33990 33235 ft 507 kts 152°
2026-05-07 13:54 32.33707 119.38752 33197 ft 507 kts 152°